Carbondale, IL

9:22 AM CDT on May 29, 2017 (GMT -0500)
Southern Illinois

Weather History for KMDH - December, 2011

Change the Weather History Date:

Wednesday, December 28, 2011

  Actual Average Record
Temperature  
Mean Temperature 37 °F -  
Max Temperature 46 °F 40 °F 68 °F (1928)
Min Temperature 28 °F 23 °F -10 °F (1924)
Degree Days  
Heating Degree Days 28    
Moisture  
Dew Point 30 °F    
Average Humidity 76    
Maximum Humidity 92    
Minimum Humidity 54    
Precipitation  
Precipitation 0.00 in - - ()
Sea Level Pressure  
Sea Level Pressure 30.08 in    
Wind  
Wind Speed 5 mph (SW)    
Max Wind Speed 12 mph    
Max Gust Speed -    
Visibility 10 miles    
Events      
Averages and records for this station are not official NWS values.
T = Trace of Precipitation, MM = Missing Value Source: NWS Daily Summary

Daily Weather History Graph

Daily Weather History Graph

Search for Another Location

Airport or City:

Trip Planner

Search our weather history database for the weather conditions in past years. The results will help you decide how hot, cold, wet, or windy it might be!

Date:

Astronomy

Dec. 28, 2011 Rise Set
Actual Time 7:11 AM CST 4:45 PM CST
Civil Twilight 6:42 AM CST 5:14 PM CST
Nautical Twilight 6:09 AM CST 5:47 PM CST
Astronomical Twilight 5:37 AM CST 6:19 PM CST
Moon 9:41 AM CST (12/28) 9:16 PM CST (12/28)
Length of Visible Light 10h 32m
Length of Day
9h 34m
Waxing Crescent, 18% of the Moon is Illuminated
Dec 28
Waxing Crescent
Jan 1
First Quarter
Jan 9
Full
Jan 16
Last Quarter
Jan 23
New

Hourly Weather History & Observations

Time (CST) Temp. Windchill Dew Point Humidity Pressure Visibility Wind Dir Wind Speed Gust Speed Precip Events Conditions
12:52 AM 33.1 °F 27.7 °F 27.0 °F 78% 30.10 in 10.0 mi NNW 5.8 mph - N/A   Clear
2:52 AM 32.0 °F 28.7 °F 27.0 °F 82% 30.13 in 10.0 mi NW 3.5 mph - N/A   Clear
3:52 AM 32.0 °F 28.7 °F 27.0 °F 82% 30.11 in 10.0 mi NW 3.5 mph - N/A   Clear
4:52 AM 30.9 °F - 27.0 °F 85% 30.12 in 10.0 mi Calm Calm - N/A   Clear
5:52 AM 28.9 °F 25.2 °F 27.0 °F 92% 30.13 in 10.0 mi SSW 3.5 mph - N/A   Clear
6:52 AM 28.9 °F - 26.1 °F 89% 30.14 in 10.0 mi Calm Calm - N/A   Clear
7:52 AM 30.0 °F - 28.0 °F 92% 30.14 in 10.0 mi Calm Calm - N/A   Clear
8:52 AM 33.1 °F 30.0 °F 28.9 °F 85% 30.15 in 10.0 mi WSW 3.5 mph - N/A   Clear
9:52 AM 35.1 °F - 28.9 °F 78% 30.16 in 10.0 mi Calm Calm - N/A   Clear
10:52 AM 39.0 °F 32.3 °F 30.9 °F 73% 30.14 in 10.0 mi WSW 10.4 mph - N/A   Clear
11:52 AM 39.9 °F 35.8 °F 30.0 °F 68% 30.10 in 10.0 mi SSW 5.8 mph - N/A   Clear
12:52 PM 43.0 °F 38.8 °F 30.9 °F 62% 30.09 in 10.0 mi WSW 6.9 mph - N/A   Clear
1:52 PM 45.0 °F - 30.9 °F 58% 30.07 in 10.0 mi Calm Calm - N/A   Clear
2:52 PM 46.0 °F 43.9 °F 30.0 °F 54% 30.06 in 10.0 mi SSW 4.6 mph - N/A   Clear
3:52 PM 46.0 °F - 30.9 °F 56% 30.06 in 10.0 mi Calm Calm - N/A   Clear
4:52 PM 39.9 °F 35.1 °F 32.0 °F 73% 30.06 in 10.0 mi South 6.9 mph - N/A   Clear
6:52 PM 39.0 °F 32.8 °F 30.9 °F 73% 30.04 in 10.0 mi South 9.2 mph - N/A   Clear
7:52 PM 37.9 °F 31.5 °F 30.9 °F 76% 30.02 in 10.0 mi South 9.2 mph - N/A   Clear
8:52 PM 37.0 °F 31.6 °F 30.9 °F 79% 30.03 in 10.0 mi South 6.9 mph - N/A   Clear
9:52 PM 39.9 °F 32.9 °F 32.0 °F 73% 30.01 in 10.0 mi SSW 11.5 mph - N/A   Clear
10:52 PM 39.0 °F 31.8 °F 32.0 °F 76% 29.99 in 10.0 mi SSW 11.5 mph - N/A   Clear
11:52 PM 37.9 °F 31.5 °F 32.0 °F 79% 29.97 in 10.0 mi SSW 9.2 mph - N/A   Clear